Location: PACMO
(41.3967°N, 90.3760°W)
Time: 07:28:53
(UTC-05:00)

NOAA 19 - Visible Passes

Search period start: 29 March 2015 00:00
Search period end: 08 April 2015 00:00
Orbit: 842 x 863 km, 99.0° (Epoch: 28 March)

Date Brightness Start Highest point End Pass type
(mag) Time Alt. Az. Time Alt. Az. Time Alt. Az.
29 Mar 7.1 02:49:14 10° NNE 02:52:00 26° NE 02:52:00 26° NE visible
29 Mar 6.3 04:30:07 10° N 04:34:03 30° NW 04:34:03 30° NW visible
30 Mar 7.3 02:38:17 10° NE 02:40:47 22° ENE 02:40:47 22° ENE visible
30 Mar 6.1 04:18:44 10° N 04:22:50 36° NW 04:22:50 36° NW visible
31 Mar 7.5 02:27:25 10° NE 02:29:34 18° ENE 02:29:34 18° ENE visible
31 Mar 5.9 04:07:23 10° N 04:11:37 42° NW 04:11:37 42° NW visible
01 Apr 7.7 02:16:40 10° NE 02:18:21 15° ENE 02:18:21 15° ENE visible
01 Apr 5.7 03:56:06 10° N 04:00:24 50° NNW 04:00:24 50° NNW visible
02 Apr 7.8 02:06:10 10° ENE 02:07:08 12° ENE 02:07:08 12° ENE visible
02 Apr 5.6 03:44:50 10° N 03:49:12 56° N 03:49:12 56° N visible
02 Apr 7.2 05:28:38 10° NW 05:30:16 11° WNW 05:31:15 10° WNW visible
03 Apr 5.7 03:33:36 10° NNE 03:37:59 57° NNE 03:37:59 57° NNE visible
03 Apr 7.0 05:16:24 10° NNW 05:19:14 14° WNW 05:20:02 13° WNW visible
04 Apr 5.8 03:22:26 10° NNE 03:26:46 54° NE 03:26:46 54° NE visible
04 Apr 6.8 05:04:36 10° NNW 05:08:10 17° WNW 05:08:48 17° WNW visible
05 Apr 6.1 03:11:18 10° NNE 03:15:32 47° ENE 03:15:32 47° ENE visible
05 Apr 6.6 04:52:59 10° NNW 04:57:05 21° WNW 04:57:35 21° WNW visible
06 Apr 6.3 03:00:12 10° NNE 03:04:19 39° ENE 03:04:19 39° ENE visible
06 Apr 6.3 04:41:28 10° N 04:46:00 26° WNW 04:46:22 26° WNW visible
07 Apr 6.6 02:49:09 10° NNE 02:53:06 33° ENE 02:53:06 33° ENE visible
07 Apr 6.1 04:30:01 10° N 04:34:53 32° WNW 04:35:09 32° WNW visible
